| time (UTC) | temp F | wind direction | speed MPH | gust MPH | rain 1hr in | rain 24hr in | rain mn in | humidity % | barometer mb |
| 20260904073004 | 63 | 348 | 1.0 | 2.0 | 0.01 | 0.04 | 0.02 | 99 | 1014.5 |
| 20260904072004 | 63 | 288 | 1.0 | 2.0 | 0.01 | 0.04 | 0.02 | 99 | 1014.2 |
| 20260904070004 | 63 | 22 | 1.0 | 2.0 | 0.01 | 0.04 | 0.02 | 99 | 1014.1 |
| 20260904065004 | 63 | 5 | 1.0 | 2.0 | 0.01 | 0.04 | 0.02 | 99 | 1014.3 |
| 20260904064004 | 63 | 0 | 0.0 | 2.0 | 0.01 | 0.03 | 0.02 | 99 | 1014.3 |
| 20260904063003 | 63 | 350 | 1.0 | 2.0 | 0.01 | 0.02 | 0.01 | 99 | 1013.8 |
| 20260904062003 | 63 | 11 | 1.0 | 2.0 | 0.01 | 0.02 | 0.01 | 99 | 1013.5 |
| 20260904061004 | 64 | 19 | 0.0 | 3.0 | 0.01 | 0.02 | 0.01 | 99 | 1013.7 |
| 20260904055004 | 64 | 5 | 1.0 | 2.0 | 0.01 | 0.02 | 0.01 | 99 | 1014.8 |
| 20260904054004 | 64 | 53 | 1.0 | 2.0 | 0.00 | 0.02 | 0.00 | 99 | 1014.5 |
| 20260904053004 | 64 | 32 | 2.0 | 2.0 | 0.00 | 0.02 | 0.00 | 99 | 1014.7 |
| 20260904052003 | 64 | 28 | 1.0 | 2.0 | 0.00 | 0.02 | 0.00 | 99 | 1014.9 |
| 20260904051004 | 64 | 0 | 2.0 | 2.0 | 0.00 | 0.02 | 0.00 | 99 | 1014.7 |
| 20260904050004 | 64 | 13 | 1.0 | 2.0 | 0.00 | 0.02 | 0.00 | 99 | 1015.1 |
| 20260904045004 | 64 | 314 | 2.0 | 2.0 | 0.00 | 0.02 | 0.02 | 99 | 1015.0 |
| 20260904044004 | 64 | 23 | 1.0 | 2.0 | 0.00 | 0.02 | 0.02 | 99 | 1015.1 |
| 20260904043004 | 64 | 334 | 1.0 | 2.0 | 0.00 | 0.02 | 0.02 | 99 | 1015.3 |
| 20260904042004 | 64 | 339 | 1.0 | 1.0 | 0.00 | 0.02 | 0.02 | 99 | 1015.4 |
| 20260904041004 | 64 | 347 | 0.0 | 2.0 | 0.00 | 0.02 | 0.02 | 99 | 1015.4 |
| 20260904040004 | 64 | 315 | 0.0 | 2.0 | 0.00 | 0.02 | 0.02 | 99 | 1015.4 |
| 20260904035004 | 64 | 22 | 1.0 | 2.0 | 0.00 | 0.02 | 0.02 | 99 | 1015.2 |
| 20260904034003 | 64 | 17 | 1.0 | 2.0 | 0.00 | 0.02 | 0.02 | 99 | 1015.4 |
| 20260904033004 | 64 | 45 | 1.0 | 2.0 | 0.00 | 0.02 | 0.02 | 99 | 1014.9 |
| 20260904032004 | 64 | 46 | 1.0 | 2.0 | 0.00 | 0.02 | 0.02 | 99 | 1015.3 |
| 20260904031004 | 64 | 11 | 1.0 | 2.0 | 0.00 | 0.02 | 0.02 | 99 | 1015.2 |
| 20260904025004 | 64 | 341 | 1.0 | 2.0 | 0.00 | 0.02 | 0.02 | 99 | 1015.6 |
| 20260904024005 | 64 | 34 | 0.0 | 2.0 | 0.00 | 0.02 | 0.02 | 99 | 1015.4 |
| 20260904023003 | 64 | 303 | 1.0 | 2.0 | 0.00 | 0.02 | 0.02 | 99 | 1015.7 |
| 20260904022004 | 64 | 21 | 0.0 | 1.0 | 0.00 | 0.02 | 0.02 | 99 | 1015.5 |
| 20260904021003 | 65 | 24 | 1.0 | 1.0 | 0.00 | 0.02 | 0.02 | 99 | 1015.1 |
| 20260904020004 | 65 | 0 | 0.0 | 1.0 | 0.00 | 0.02 | 0.02 | 99 | 1015.4 |
| 20260904015004 | 65 | 355 | 1.0 | 1.0 | 0.00 | 0.02 | 0.02 | 99 | 1015.5 |
| 20260904014004 | 65 | 359 | 0.0 | 1.0 | 0.00 | 0.02 | 0.02 | 99 | 1015.6 |
| 20260904013004 | 66 | 11 | 1.0 | 1.0 | 0.00 | 0.02 | 0.02 | 99 | 1015.4 |
| 20260904011004 | 66 | 312 | 0.0 | 1.0 | 0.00 | 0.02 | 0.02 | 98 | 1015.3 |
| 20260904005003 | 67 | 355 | 0.0 | 1.0 | 0.00 | 0.02 | 0.02 | 97 | 1014.9 |
| 20260904004004 | 67 | 29 | 0.0 | 1.0 | 0.00 | 0.02 | 0.02 | 97 | 1014.8 |
| 20260904002004 | 68 | 11 | 0.0 | 2.0 | 0.00 | 0.02 | 0.02 | 95 | 1015.0 |
| 20260903235003 | 69 | 73 | 1.0 | 2.0 | 0.00 | 0.02 | 0.02 | 93 | 1014.6 |
| 20260903234004 | 69 | 267 | 1.0 | 3.0 | 0.00 | 0.02 | 0.02 | 93 | 1014.6 |
| 20260903233003 | 70 | 48 | 1.0 | 2.0 | 0.00 | 0.02 | 0.02 | 91 | 1014.6 |
| 20260903232004 | 70 | 344 | 0.0 | 2.0 | 0.00 | 0.02 | 0.02 | 91 | 1014.7 |
| 20260903231004 | 71 | 315 | 0.0 | 2.0 | 0.00 | 0.02 | 0.02 | 89 | 1014.7 |
| 20260903230003 | 71 | 12 | 0.0 | 2.0 | 0.00 | 0.02 | 0.02 | 89 | 1014.6 |
| 20260903224004 | 71 | 10 | 1.0 | 2.0 | 0.00 | 0.02 | 0.02 | 87 | 1014.1 |
| 20260903223003 | 72 | 6 | 1.0 | 3.0 | 0.00 | 0.02 | 0.02 | 88 | 1014.2 |
| 20260903222003 | 72 | 103 | 2.0 | 3.0 | 0.00 | 0.02 | 0.02 | 84 | 1014.2 |
| 20260903221003 | 73 | 29 | 2.0 | 3.0 | 0.00 | 0.02 | 0.02 | 84 | 1014.3 |
| 20260903220004 | 72 | 109 | 1.0 | 3.0 | 0.00 | 0.02 | 0.02 | 87 | 1014.5 |
| 20260903215004 | 73 | 68 | 1.0 | 3.0 | 0.00 | 0.02 | 0.02 | 86 | 1014.5 |
| 20260903214004 | 73 | 81 | 2.0 | 3.0 | 0.00 | 0.02 | 0.02 | 87 | 1014.4 |
| 20260903212004 | 72 | 48 | 2.0 | 3.0 | 0.00 | 0.02 | 0.02 | 88 | 1014.2 |
| 20260903211003 | 72 | 311 | 2.0 | 3.0 | 0.00 | 0.02 | 0.02 | 89 | 1014.5 |
| 20260903210003 | 71 | 62 | 1.0 | 3.0 | 0.00 | 0.02 | 0.02 | 90 | 1014.5 |
| 20260903205004 | 71 | 82 | 2.0 | 5.0 | 0.00 | 0.02 | 0.02 | 91 | 1014.4 |
| 20260903203004 | 71 | 58 | 1.0 | 5.0 | 0.00 | 0.02 | 0.02 | 91 | 1014.3 |
| 20260903201004 | 71 | 195 | 1.0 | 5.0 | 0.00 | 0.02 | 0.02 | 92 | 1014.8 |
| 20260903195003 | 71 | 262 | 1.0 | 5.0 | 0.00 | 0.02 | 0.02 | 89 | 1014.7 |
| 20260903194004 | 71 | 48 | 2.0 | 5.0 | 0.00 | 0.02 | 0.02 | 91 | 1014.9 |
| 20260903193004 | 72 | 300 | 0.0 | 2.0 | 0.00 | 0.02 | 0.02 | 89 | 1015.2 |
| 20260903192004 | 71 | 160 | 1.0 | 3.0 | 0.00 | 0.02 | 0.02 | 91 | 1014.9 |
| 20260903191004 | 71 | 34 | 1.0 | 3.0 | 0.00 | 0.02 | 0.02 | 92 | 1014.9 |
| 20260903190004 | 70 | 41 | 1.0 | 3.0 | 0.00 | 0.02 | 0.02 | 93 | 1015.0 |
| 20260903185003 | 71 | 328 | 1.0 | 6.0 | 0.00 | 0.02 | 0.02 | 91 | 1015.3 |
| 20260903184004 | 71 | 30 | 1.0 | 7.0 | 0.00 | 0.02 | 0.02 | 89 | 1015.0 |
| 20260903183004 | 72 | 337 | 2.0 | 10.0 | 0.00 | 0.02 | 0.02 | 89 | 1014.8 |
| 20260903182004 | 72 | 83 | 1.0 | 5.0 | 0.00 | 0.02 | 0.02 | 91 | 1014.5 |
| 20260903181004 | 71 | 91 | 2.0 | 7.0 | 0.00 | 0.02 | 0.02 | 94 | 1014.4 |
| 20260903180003 | 70 | 26 | 1.0 | 5.0 | 0.01 | 0.02 | 0.02 | 96 | 1014.6 |
| 20260903175003 | 69 | 81 | 2.0 | 3.0 | 0.02 | 0.02 | 0.02 | 97 | 1014.6 |
| 20260903174003 | 69 | 338 | 2.0 | 5.0 | 0.02 | 0.02 | 0.02 | 98 | 1014.6 |
| 20260903173004 | 68 | 104 | 1.0 | 2.0 | 0.02 | 0.02 | 0.02 | 99 | 1014.6 |
| 20260903172004 | 67 | 22 | 1.0 | 2.0 | 0.02 | 0.02 | 0.02 | 99 | 1014.4 |
| 20260903171003 | 67 | 302 | 1.0 | 2.0 | 0.01 | 0.01 | 0.01 | 99 | 1015.3 |
| 20260903170004 | 67 | 345 | 1.0 | 3.0 | 0.01 | 0.01 | 0.01 | 99 | 1015.2 |
| 20260903165004 | 66 | 294 | 1.0 | 2.0 | 0.00 | 0.00 | 0.00 | 99 | 1015.6 |
| 20260903164003 | 66 | 12 | 2.0 | 2.0 | 0.00 | 0.00 | 0.00 | 98 | 1015.6 |
| 20260903163003 | 67 | 314 | 1.0 | 2.0 | 0.00 | 0.00 | 0.00 | 98 | 1015.9 |
| 20260903162004 | 67 | 348 | 1.0 | 2.0 | 0.00 | 0.00 | 0.00 | 97 | 1015.4 |
| 20260903161003 | 67 | 336 | 2.0 | 2.0 | 0.00 | 0.00 | 0.00 | 97 | 1015.5 |
| 20260903160004 | 67 | 310 | 0.0 | 1.0 | 0.00 | 0.00 | 0.00 | 96 | 1015.3 |
| 20260903155004 | 67 | 340 | 0.0 | 1.0 | 0.00 | 0.00 | 0.00 | 96 | 1015.3 |
| 20260903153004 | 67 | 348 | 1.0 | 1.0 | 0.00 | 0.00 | 0.00 | 93 | 1015.6 |
| 20260903152003 | 68 | 26 | 1.0 | 2.0 | 0.00 | 0.00 | 0.00 | 92 | 1015.4 |
| 20260903151004 | 68 | 312 | 2.0 | 2.0 | 0.00 | 0.00 | 0.00 | 92 | 1015.1 |
| 20260903150004 | 68 | 14 | 0.0 | 2.0 | 0.00 | 0.00 | 0.00 | 92 | 1015.1 |
| 20260903144004 | 68 | 299 | 1.0 | 2.0 | 0.00 | 0.00 | 0.00 | 91 | 1014.7 |
| 20260903143004 | 68 | 348 | 1.0 | 3.0 | 0.00 | 0.00 | 0.00 | 91 | 1014.7 |
| 20260903142004 | 68 | 53 | 1.0 | 2.0 | 0.00 | 0.00 | 0.00 | 91 | 1014.5 |
| 20260903141004 | 67 | 35 | 1.0 | 2.0 | 0.00 | 0.00 | 0.00 | 91 | 1014.6 |
| 20260903140004 | 67 | 1 | 1.0 | 2.0 | 0.00 | 0.00 | 0.00 | 92 | 1014.8 |
| 20260903135003 | 67 | 349 | 0.0 | 2.0 | 0.00 | 0.00 | 0.00 | 92 | 1014.9 |
| 20260903134004 | 66 | 10 | 1.0 | 1.0 | 0.00 | 0.00 | 0.00 | 92 | 1015.0 |
| 20260903133004 | 66 | 24 | 0.0 | 2.0 | 0.00 | 0.00 | 0.00 | 92 | 1014.8 |
| 20260903132004 | 66 | 3 | 1.0 | 2.0 | 0.00 | 0.00 | 0.00 | 92 | 1014.9 |
| 20260903131004 | 66 | 314 | 1.0 | 2.0 | 0.00 | 0.00 | 0.00 | 93 | 1014.9 |
| 20260903130004 | 65 | 16 | 1.0 | 2.0 | 0.00 | 0.00 | 0.00 | 93 | 1014.8 |
| 20260903125004 | 65 | 6 | 1.0 | 2.0 | 0.00 | 0.00 | 0.00 | 93 | 1014.9 |
| 20260903124004 | 64 | 25 | 1.0 | 2.0 | 0.00 | 0.01 | 0.00 | 94 | 1014.9 |
| 20260903123004 | 64 | 320 | 1.0 | 2.0 | 0.00 | 0.01 | 0.00 | 94 | 1015.0 |
| 20260903122004 | 63 | 14 | 1.0 | 2.0 | 0.00 | 0.01 | 0.00 | 94 | 1014.8 |
| 20260903121003 | 63 | 3 | 1.0 | 2.0 | 0.00 | 0.01 | 0.00 | 95 | 1015.0 |
| 20260903114004 | 62 | 31 | 1.0 | 2.0 | 0.00 | 0.02 | 0.00 | 96 | 1015.0 |
| 20260903112004 | 62 | 17 | 0.0 | 2.0 | 0.00 | 0.02 | 0.00 | 96 | 1014.9 |
| 20260903111004 | 62 | 28 | 1.0 | 2.0 | 0.00 | 0.03 | 0.00 | 96 | 1014.8 |
| 20260903110004 | 62 | 0 | 1.0 | 2.0 | 0.00 | 0.06 | 0.00 | 96 | 1014.7 |
| 20260903105004 | 62 | 11 | 1.0 | 2.0 | 0.00 | 0.08 | 0.00 | 96 | 1014.7 |
| 20260903104005 | 62 | 15 | 1.0 | 2.0 | 0.00 | 0.09 | 0.00 | 97 | 1014.4 |
| 20260903102003 | 62 | 16 | 1.0 | 2.0 | 0.00 | 0.12 | 0.00 | 98 | 1014.6 |
| 20260903101003 | 62 | 29 | 1.0 | 2.0 | 0.00 | 0.15 | 0.00 | 99 | 1015.0 |
| 20260903100004 | 61 | 357 | 1.0 | 1.0 | 0.00 | 0.15 | 0.00 | 99 | 1014.8 |
| 20260903095004 | 61 | 16 | 1.0 | 1.0 | 0.00 | 0.15 | 0.00 | 99 | 1014.9 |
| 20260903094004 | 61 | 8 | 1.0 | 2.0 | 0.00 | 0.15 | 0.00 | 99 | 1014.5 |
| 20260903092004 | 61 | 27 | 1.0 | 1.0 | 0.00 | 0.15 | 0.00 | 99 | 1014.3 |
| 20260903091004 | 62 | 18 | 1.0 | 2.0 | 0.00 | 0.15 | 0.00 | 99 | 1014.4 |
| 20260903090004 | 61 | 14 | 1.0 | 1.0 | 0.00 | 0.15 | 0.00 | 99 | 1014.4 |
| 20260903085004 | 61 | 19 | 1.0 | 1.0 | 0.00 | 0.15 | 0.00 | 99 | 1014.2 |
| 20260903084004 | 61 | 5 | 1.0 | 2.0 | 0.00 | 0.15 | 0.00 | 99 | 1014.5 |
| 20260903083004 | 61 | 15 | 1.0 | 1.0 | 0.00 | 0.15 | 0.00 | 99 | 1014.5 |
| 20260903081004 | 62 | 36 | 1.0 | 2.0 | 0.00 | 0.15 | 0.00 | 99 | 1014.4 |
| 20260903080004 | 62 | 18 | 1.0 | 2.0 | 0.00 | 0.15 | 0.00 | 99 | 1014.4 |
| 20260903075004 | 62 | 346 | 0.0 | 1.0 | 0.00 | 0.15 | 0.00 | 99 | 1014.4 |
| 20260903074004 | 62 | 14 | 1.0 | 2.0 | 0.00 | 0.15 | 0.00 | 99 | 1014.4 |